Dauntless Aviation
Greetings, Guest! To participate, [sign up for a free account] or [log in]
Airports North America United States Florida
0J8

FLYING TEN AIRPORT

ARCHER, FL, USA

Airport Info

Location

Latitude / Longitude: 29°37'4"N / 82°30'31"W
  29°37.0813'N / 82°30.5232'W
  29.6180 / -82.5087
Elevation: 85 ft. (estimated)
Variation: 02W (1985)
From city: 05 miles N of ARCHER, FL

Operations

Facility use: Open to the public
Sectional chart: JACKSONVILLE
Control tower: no
Boundary ARTCC: JACKSONVILLE
FSS: GAINESVILLE [1-800-WX-BRIEF]
NOTAMs facility: GNV (NOTAM-D service available)
Segmented circle: no
Lights: PHONE REQ
Landing fee: no

Communications

CTAF: 122.900

Nearby radio navigation aids

VOR radial/distance VOR name Freq Var
GNV 250oT/13.1 GATORS VORTAC 116.20 04W
CTY 88oT/28.2 CROSS CITY VORTAC 112.00 02W
OCF 331oT/30.3 OCALA VORTAC 113.70 00E
 
NDB name Hdg/Dist Freq Var ID
WYNDS 260oT/17.8 269 04W GN
LAKE CITY 174oT/34.3 204 03W LCQ
PALATKA 267oT/36.4 243 05W IAK

Services

Fuel available: 100LL
Bottled oxygen: NONE
Bulk oxygen: NONE

Runway Information

Runway 18/36

Dimensions: 3200 x 170 ft.
Surface: GRASS; SOD,FAIR CONDITION,NO SPECIAL SURFACE TREATMENT
Edge lights: NON-STANDARD LIGHTING SYSTEM
 
Runway 18
Runway 36
Traffic pattern: left left
 

Operational Statistics

Annual operations: 30000
Local: 20000
Itinerant: 10000

Additional Remarks

Instrument Procedures

No published instrument procedures available
Topographic chart at:
Satellite photo at:
Airport distance calculator
From:
Weather Reports

METAR

KGNV
12.7nm NE
KGNV 231953Z VRB03KT 10SM FEW050 SCT065 28/16 A2987 RMK AO2 SLP114 T02830161
K42J
27.7nm NE
K42J 232035Z AUTO 30009KT 10SM FEW050 28/14 A2987 RMK AO1
KCTY
30.9nm W
KCTY 231953Z AUTO 26008KT 230V290 27/17 A2989 RMK AO1 SLP119 T02720172

TAF

KGNV
12.7nm NE
KGNV 231729Z 2318/2418 30006KT P6SM VCSH BKN040 FM240100 VRB03KT P6SM SCT250 FM240800 VRB02KT 4SM BR SCT250 FM241300 12005KT P6SM SCT045 SCT250
Safelog

 

Dauntless Aviation

© 2007-2014 Dauntless Aviation, all rights reserved
Information provided via PilotNav comes from a variety of official and unofficial data sources. As errors are possible, do not use PilotNav for primary flight planning purposes. Verify any information that you receive via PilotNav with current and canonical charts and other official documents. The material in this database is subject to database copyrights held by Dauntless Aviation and may not be copied without the express permission of Dauntless Aviation - licenses for use of part of all of this data are available for purchase; enquire via the Dauntless Aviation helpdesk. A number of mechanisms and markers exist in the database to protect against and identify infringement / copyright. Automated queries against this website are stictly prohibited, and all activity is logged and analyzed.